{"data":{"norad_id":67131,"epoch":"2026-09-20T16:05:01.881888Z","epoch_age_seconds":91427,"freshness":"FRESH","line1":"1 67131U 25300A   26263.67016067  .00002485  00000+0  11466-3 0  9999","line2":"2 67131  97.4664 340.8242 0006874 355.1996   4.9173 15.21160732 42358","mean_motion":15.21160732,"eccentricity":0.0006874,"inclination_deg":97.4664,"raan_deg":340.8242,"arg_perigee_deg":355.1996,"mean_anomaly_deg":4.9173,"bstar":0.00011466,"rev_number":4235,"period_min":94.664552516203,"perigee_km":497.60861904186,"apogee_km":507.0678964262,"semimajor_km":6880.475257734,"source":"CELESTRAK","updated_at":"2026-09-21T09:00:16.453164Z"}}